Location: Estes Par
(40.3770°N, 105.5210°W)
Time: 02:52:44
(UTC-07:00)

Vanguard 3 - All Passes

Search period start: 15 December 2017 00:00
Search period end: 25 December 2017 00:00
Orbit: 509 x 3263 km, 33.3° (Epoch: 14 December)

Date Brightness Start Highest point End Pass type
(mag) Time Alt. Az. Time Alt. Az. Time Alt. Az.
15 Dec - 11:30:11 10° SW 11:34:15 22° S 11:37:25 10° ESE daylight
15 Dec - 13:41:47 10° WSW 13:45:15 29° S 13:48:31 10° ESE daylight
15 Dec - 15:53:28 10° WSW 15:56:09 18° SSW 15:59:17 10° SSE daylight
16 Dec - 10:16:24 10° SSW 10:20:48 18° SSE 10:24:08 10° ESE daylight
16 Dec - 12:27:59 10° WSW 12:32:08 29° S 12:35:27 10° ESE daylight
16 Dec - 14:39:57 10° WSW 14:43:00 24° S 14:46:09 10° SE daylight
17 Dec - 09:02:58 10° S 09:07:04 15° SSE 09:10:21 10° SE daylight
17 Dec - 11:13:48 10° SW 11:18:52 27° S 11:22:30 10° ESE daylight
17 Dec - 13:26:12 10° WSW 13:29:55 30° S 13:33:09 10° ESE daylight
17 Dec - 15:38:40 10° SW 15:40:44 14° SSW 15:42:58 10° SSE daylight
18 Dec - 07:51:14 10° SSE 07:53:02 11° SSE 07:54:40 10° SE daylight
18 Dec - 09:59:24 10° SW 10:05:22 24° SSE 10:09:29 10° ESE daylight
18 Dec - 12:12:02 10° WSW 12:16:46 33° S 12:20:18 10° ESE daylight
18 Dec - 14:24:39 10° WSW 14:27:36 21° SSW 14:30:29 10° SE daylight
19 Dec - 08:45:04 10° SSW 08:51:33 20° SSE 08:56:08 10° ESE daylight
19 Dec - 10:57:24 10° SW 11:03:28 33° S 11:07:31 10° ESE daylight
19 Dec - 13:10:32 10° WSW 13:14:33 30° S 13:17:50 10° SE daylight
19 Dec - 15:24:18 10° SW 15:25:16 11° SSW 15:26:15 10° S daylight
20 Dec - 07:31:22 10° S 07:37:23 16° SSE 07:41:59 10° ESE daylight
20 Dec - 09:42:27 10° SW 09:49:53 31° SSE 09:54:39 10° ESE daylight
20 Dec - 11:56:00 10° WSW 12:01:23 37° S 12:05:10 10° ESE daylight
20 Dec - 14:09:17 10° WSW 14:12:11 19° SSW 14:14:50 10° SSE daylight
21 Dec - 06:19:58 10° SSE 06:22:51 11° SSE 06:25:27 10° SE visible
21 Dec - 08:27:30 10° SSW 08:35:57 26° SSE 08:41:30 10° ESE daylight
21 Dec - 10:40:57 10° WSW 10:48:01 39° S 10:52:29 10° ESE daylight
21 Dec - 12:54:45 10° WSW 12:59:10 29° SSW 13:02:32 10° SE daylight
22 Dec - 07:12:56 10° SSW 07:21:39 21° SSE 07:27:45 10° ESE daylight
22 Dec - 09:25:31 10° SW 09:34:20 37° S 09:39:41 10° ESE daylight
22 Dec - 11:39:51 10° WSW 11:45:59 39° S 11:50:01 10° ESE daylight
22 Dec - 13:53:53 10° WSW 13:56:42 17° SSW 13:59:12 10° SSE daylight
23 Dec - 05:59:31 10° S 06:06:58 16° SSE 06:12:49 10° ESE visible
23 Dec - 08:10:01 10° SW 08:20:16 33° SSE 08:26:38 10° ESE daylight
23 Dec - 10:24:24 10° WSW 10:32:32 44° S 10:37:25 10° ESE daylight
23 Dec - 12:38:53 10° WSW 12:43:42 29° SSW 12:47:14 10° SE daylight
24 Dec - 04:51:14 10° SSE 04:52:00 10° SE 04:52:45 10° SE visible
24 Dec - 06:54:50 10° SSW 07:05:48 27° SSE 07:13:05 10° ESE visible
24 Dec - 09:08:34 10° WSW 09:18:43 43° S 09:24:39 10° ESE daylight
24 Dec - 11:23:36 10° WSW 11:30:31 42° S 11:34:53 10° ESE daylight
24 Dec - 13:38:24 10° WSW 13:41:09 15° SSW 13:43:31 10° S daylight
